Date String (YYYY-MM-DD hh:mm:ss) UTC,Instrument flags,absolute air pressure of the measurement (hPa),sample flow rate (lpm),inlet stack bypass flow (lpm),air temperature of the measurement (°C),ambient temperature measured by the external sensor (°C),aerosol sample conditioner tube jacket temperature (°C),OPC LED temperature (°C),internal box temperature (°C),relative humidity of the measurement (%),span deviation,mass concentration of particles derived from Lorenz-Mie calculation of OPC scattering (μg/m³),mass concentration of particles derived from Lorenz-Mie calculation of OPC scattering (μg/m³),mass concentration of particles derived from Lorenz-Mie calculation of OPC scattering (μg/m³)
DateTimeUTC,F1_M11,P_M11,Q1_M11,Q2_M11,T1_M11,T2_M11,T3_M11,T4_M11,T5_M11,U1_M11,ZSPAN_M11,X2_M11,X0_M11,X1_M11
2024-02-07 21:00:00,SystemResetWarning,0809.0,5.00,000.00,020.0,019.7,000.0,028.3,021.8,21.0,0005.0,0007.64,0013.06,0007.09
2024-02-07 21:01:00,SystemResetWarning,0809.0,5.01,000.00,020.1,019.7,000.0,028.3,021.8,21.0,0004.8,0007.69,0012.93,0007.14
2024-02-07 21:02:00,SystemResetWarning,0809.0,5.01,000.00,020.1,019.8,000.0,028.3,021.9,20.5,0004.7,0007.72,0012.63,0007.15
2024-02-07 21:03:00,SystemResetWarning,0809.0,5.00,000.00,020.1,019.8,000.0,028.3,021.9,20.1,0004.8,0007.64,0013.51,0007.09
2024-02-07 21:04:00,SystemResetWarning,0809.0,4.99,000.00,020.1,019.8,000.0,028.3,021.9,20.1,0005.0,0007.56,0013.80,0007.02
2024-02-07 21:05:00,SystemResetWarning,0809.0,5.00,000.00,020.1,019.8,000.0,028.3,021.9,20.5,0004.6,0007.47,0013.50,0006.93
2024-02-07 21:06:00,SystemResetWarning,0809.1,5.00,000.00,020.2,019.8,000.0,028.4,021.9,20.4,0004.4,0007.37,0013.31,0006.84
2024-02-07 21:07:00,SystemResetWarning,0809.0,5.00,000.00,020.2,019.9,000.0,028.4,021.9,20.4,0004.2,0007.22,0013.09,0006.73
2024-02-07 21:08:00,SystemResetWarning,0809.0,5.01,000.00,020.2,019.9,000.0,028.4,021.9,19.7,0004.3,0007.06,0012.90,0006.60
2024-02-07 21:09:00,SystemResetWarning,0809.0,5.01,000.00,020.2,019.9,000.0,028.4,022.0,19.1,0004.3,0006.92,0012.78,0006.47
2024-02-07 21:10:00,SystemResetWarning,0809.1,4.99,000.00,020.2,019.9,000.0,028.4,022.0,19.3,0004.3,0006.85,0012.63,0006.39
2024-02-07 21:11:00,SystemResetWarning,0809.1,4.99,000.00,020.3,019.9,000.0,028.4,022.0,20.3,0004.1,0006.76,0012.69,0006.28
2024-02-07 21:12:00,SystemResetWarning,0809.1,4.99,000.00,020.3,020.0,000.0,028.4,022.0,20.4,0004.3,0006.59,0012.61,0006.13
2024-02-07 21:13:00,SystemResetWarning,0809.1,5.00,000.00,020.3,020.0,000.0,028.5,022.0,20.1,0004.2,0006.45,0012.68,0005.99
2024-02-07 21:14:00,SystemResetWarning,0809.1,5.01,000.00,020.3,020.0,000.0,028.5,022.0,20.0,0003.9,0006.44,0012.11,0005.93
2024-02-07 21:15:00,SystemResetWarning,0809.1,5.01,000.00,020.3,020.0,000.0,028.5,022.0,20.3,0003.7,0006.43,0011.73,0005.91
2024-02-07 21:16:00,SystemResetWarning,0809.1,5.00,000.00,020.3,020.0,000.0,028.5,022.0,20.0,0003.7,0006.41,0012.18,0005.88
2024-02-07 21:17:00,SystemResetWarning,0809.3,4.99,000.00,020.4,020.0,000.0,028.5,022.1,19.5,0003.8,0006.38,0013.43,0005.82
2024-02-07 21:18:00,SystemResetWarning,0809.1,5.01,000.00,020.4,020.0,000.0,028.5,022.1,17.8,0003.9,0006.35,0013.58,0005.77
2024-02-07 21:19:00,SystemResetWarning,0809.1,5.01,000.00,020.4,020.0,000.0,028.5,022.1,16.2,0003.6,0006.35,0014.22,0005.73
2024-02-07 21:20:00,SystemResetWarning,0809.1,5.00,000.00,020.4,020.0,000.0,028.6,022.1,15.7,0003.3,0006.33,0014.20,0005.71
2024-02-07 21:21:00,SystemResetWarning,0809.1,4.99,000.00,020.4,020.1,000.0,028.6,022.1,15.5,0003.5,0006.27,0014.93,0005.66
2024-02-07 21:22:00,SystemResetWarning,0809.1,4.99,000.00,020.4,020.1,000.0,028.6,022.2,15.9,0003.6,0006.06,0014.55,0005.49
2024-02-07 21:23:00,SystemResetWarning,0809.1,5.00,000.00,020.5,020.1,000.0,028.6,022.2,16.9,0003.5,0005.85,0014.28,0005.27
2024-02-07 21:24:00,SystemResetWarning,0809.1,5.02,000.00,020.5,020.2,000.0,028.6,022.2,16.4,0003.6,0005.63,0013.45,0005.04
2024-02-07 21:25:00,SystemResetWarning,0809.2,5.00,000.00,020.5,020.2,000.0,028.6,022.2,16.5,0003.8,0005.28,0012.23,0004.77
2024-02-07 21:26:00,SystemResetWarning,0809.2,4.99,000.00,020.5,020.2,000.0,028.7,022.3,18.3,0000.8,0005.01,0012.20,0004.53
2024-02-07 21:27:00,SystemResetWarning,0809.3,5.00,000.00,020.5,020.2,000.0,028.7,022.3,18.0,0000.0,0004.80,0011.97,0004.34
2024-02-07 21:28:00,SystemResetWarning,0809.2,5.00,000.00,020.6,020.3,000.0,028.7,022.3,17.2,0000.0,0004.56,0010.74,0004.12
2024-02-07 21:29:00,SystemResetWarning,0809.1,5.00,000.00,020.6,020.3,000.0,028.7,022.3,16.4,0000.0,0004.37,0010.59,0003.95
2024-02-07 21:30:00,SystemResetWarning,0809.1,5.00,000.00,020.6,020.3,000.0,028.7,022.4,16.2,0000.0,0004.25,0010.15,0003.84
2024-02-07 21:31:00,SystemResetWarning,0809.1,5.00,000.00,020.6,020.2,000.0,028.8,022.4,16.2,0000.0,0004.11,0009.80,0003.73
2024-02-07 21:32:00,SystemResetWarning,0809.1,5.00,000.00,020.6,020.2,000.0,028.8,022.4,16.5,0000.0,0003.98,0008.96,0003.60
2024-02-07 21:33:00,SystemResetWarning,0809.1,5.00,000.00,020.6,020.2,000.0,028.8,022.4,16.3,0000.0,0003.96,0008.86,0003.56
2024-02-07 21:34:00,SystemResetWarning,0809.1,5.00,000.00,020.6,020.2,000.0,028.8,022.4,16.5,0000.0,0003.99,0008.79,0003.58
2024-02-07 21:35:00,SystemResetWarning,0809.1,5.00,000.00,020.6,020.2,000.0,028.8,022.4,16.3,0000.0,0004.04,0008.78,0003.64
2024-02-07 21:36:00,SystemResetWarning,0809.1,5.00,000.00,020.7,020.2,000.0,028.8,022.4,16.2,0000.0,0004.14,0008.87,0003.73
2024-02-07 21:37:00,SystemResetWarning,0809.1,5.00,000.00,020.7,020.2,000.0,028.9,022.5,16.6,0000.0,0004.17,0008.42,0003.76
2024-02-07 21:38:00,SystemResetWarning,0809.1,5.00,000.00,020.7,020.2,000.0,028.9,022.5,16.8,0000.0,0004.14,0007.93,0003.76
2024-02-07 21:39:00,SystemResetWarning,0809.1,5.00,000.00,020.7,020.2,000.0,028.9,022.5,16.7,0000.0,0004.16,0007.71,0003.78
2024-02-07 21:40:00,SystemResetWarning,0809.1,5.00,000.00,020.7,020.3,000.0,028.9,022.5,14.8,0000.0,0004.15,0007.39,0003.78
2024-02-07 21:41:00,SystemResetWarning,0809.1,5.00,000.00,020.7,020.3,000.0,028.9,022.5,16.3,0000.0,0004.04,0006.63,0003.71
2024-02-07 21:42:00,SystemResetWarning,0809.1,4.99,000.00,020.7,020.3,000.0,028.9,022.5,17.3,0000.0,0003.97,0007.64,0003.65
2024-02-07 21:43:00,SystemResetWarning,0809.1,4.99,000.00,020.7,020.3,000.0,029.0,022.5,17.8,0000.0,0003.90,0007.50,0003.61
2024-02-07 21:44:00,SystemResetWarning,0809.2,4.99,000.00,020.7,020.3,000.0,029.0,022.5,18.0,0000.0,0003.84,0007.45,0003.55
2024-02-07 21:45:00,SystemResetWarning,0809.3,5.01,000.00,020.8,020.3,000.0,029.0,022.5,18.1,0000.0,0003.84,0007.46,0003.57
2024-02-07 21:46:00,SystemResetWarning,0809.2,5.01,000.00,020.8,020.3,000.0,029.0,022.5,19.3,0001.6,0003.93,0007.61,0003.64
2024-02-07 21:47:00,SystemResetWarning,0809.3,5.01,000.00,020.8,020.3,000.0,029.0,022.5,20.1,0003.7,0004.04,0008.09,0003.76
2024-02-07 21:48:00,SystemResetWarning,0809.3,5.00,000.00,020.8,020.3,000.0,029.0,022.5,20.5,0003.5,0004.22,0008.73,0003.90
2024-02-07 21:49:00,SystemResetWarning,0809.3,5.00,000.00,020.8,020.3,000.0,029.0,022.5,20.6,0003.1,0004.43,0008.82,0004.07
2024-02-07 21:50:00,SystemResetWarning,0809.2,5.00,000.00,020.8,020.3,000.0,029.0,022.6,20.7,0003.1,0004.67,0009.17,0004.26
2024-02-07 21:51:00,SystemResetWarning,0809.2,4.99,000.00,020.8,020.3,000.0,029.0,022.6,20.6,0003.4,0004.83,0009.39,0004.44
2024-02-07 21:52:00,SystemResetWarning,0809.2,4.99,000.00,020.8,020.3,000.0,029.0,022.6,20.7,0003.2,0005.05,0009.78,0004.63
2024-02-07 21:53:00,SystemResetWarning,0809.3,5.01,000.00,020.8,020.3,000.0,029.1,022.6,20.8,0003.3,0005.29,0009.70,0004.85
2024-02-07 21:54:00,SystemResetWarning,0809.4,5.01,000.00,020.8,020.3,000.0,029.1,022.6,20.8,0003.2,0005.60,0010.19,0005.10
2024-02-07 21:55:00,SystemResetWarning,0809.3,5.00,000.00,020.8,020.3,000.0,029.1,022.6,20.9,0003.5,0006.02,0010.78,0005.50
2024-02-07 21:56:00,SystemResetWarning,0809.3,5.00,000.00,020.8,020.3,000.0,029.1,022.6,20.9,0003.9,0006.40,0012.10,0005.85
2024-02-07 21:57:00,SystemResetWarning,0809.3,5.00,000.00,020.8,020.3,000.0,029.1,022.6,20.3,0004.1,0006.76,0012.70,0006.18
2024-02-07 21:58:00,SystemResetWarning,0809.3,5.00,000.00,020.8,020.3,000.0,029.1,022.6,20.8,0004.1,0007.08,0012.82,0006.46
2024-02-07 21:59:00,SystemResetWarning,0809.3,5.00,000.00,020.9,020.3,000.0,029.1,022.6,20.9,0003.9,0007.35,0012.57,0006.72
